Home   Weather   Peoria   Past weeks

Flag for USA Past Weather in Peoria, Illinois, USA — Yesterday and Last 2 Weeks

Now
59 °F

Passing clouds.


Feels Like: 60 °F
Forecast: 51 / 63 °F
Wind: 3 mph from Northwest

Location: Greater Peoria Regional Airport

Current Time: Sep 28, 2016 at 1:51:35 AM

Latest Report: Sep 28, 2016 at 12:54 AM


Visibility: 10 mi

Pressure: 29.75 "Hg

Humidity: 62%

Dew Point: 46 °F

Location of PeoriaLocation

Past Weather in Peoria — Graph

°F

Peoria Temperature Yesterday

Maximum temperature yesterday: 74 °F (at 1:54 PM)
Minimum temperature yesterday: 50 °F (at 6:54 AM)
Average temperature yesterday: 62 °F

High & Low Weather Summary for the Past Weeks

 TemperatureHumidityPressure
High90 °F (Sep 20, 2:54 PM)100% (Sep 14, 1:54 AM)30.23 "Hg (Sep 14, 1:54 AM)
Low50 °F (Sep 27, 6:54 AM)20% (Sep 27, 3:54 PM)29.75 "Hg (Sep 28, 12:54 AM)
Average72 °F75%30.03 "Hg
* Reported Sep 13 12:54 AM — Sep 28 12:54 AM, Peoria, Weather by CustomWeather, © 2016

Note: Actual official high and low records may vary slightly from our data, if they occured in-between our weather recording intervals... More about our weather records

Advertising

Peoria Weather History for the Previous 24 Hours

Scroll right to see more
 ConditionsComfort  
Time TempWeatherWind HumidityBarometerVisibility
12:54 AM
Wed, Sep 28
59 °FPassing clouds.3 mph62%29.75 "Hg10 mi
11:54 PM
Tue, Sep 27
60 °FPassing clouds.3 mph58%29.75 "Hg10 mi
10:54 PM60 °FClear.5 mph58%29.77 "Hg10 mi
9:54 PM61 °FClear.3 mph54%29.78 "Hg10 mi
8:54 PM59 °FClear.No wind60%29.79 "Hg10 mi
7:54 PM61 °FClear.No wind52%29.80 "Hg10 mi
6:54 PM67 °FClear.5 mph35%29.79 "Hg10 mi
5:54 PM73 °FSunny.8 mph24%29.78 "Hg10 mi
4:54 PM74 °FSunny.15 mph21%29.78 "Hg10 mi
3:54 PM74 °FSunny.16 mph20%29.80 "Hg10 mi
2:54 PM74 °FSunny.18 mph21%29.81 "Hg10 mi
1:54 PM74 °FSunny.15 mph21%29.83 "Hg10 mi
12:54 PM73 °FSunny.13 mph26%29.85 "Hg10 mi
11:54 AM71 °FSunny.20 mph27%29.89 "Hg10 mi
10:54 AM68 °FSunny.13 mph32%29.91 "Hg10 mi
9:54 AM65 °FSunny.8 mph45%29.93 "Hg10 mi
8:54 AM58 °FSunny.8 mph67%29.93 "Hg10 mi
7:54 AM52 °FSunny.3 mph83%29.94 "Hg10 mi
6:54 AM50 °FSunny.6 mph86%29.94 "Hg10 mi
5:54 AM52 °FClear.7 mph80%29.94 "Hg10 mi
4:54 AM52 °FClear.7 mph80%29.94 "Hg10 mi
3:54 AM53 °FClear.6 mph74%29.94 "Hg10 mi
2:54 AM59 °FClear.10 mph58%29.94 "Hg10 mi
1:54 AM55 °FClear.7 mph69%29.98 "Hg10 mi
Weather by CustomWeather, © 2016

See weather overviewHow to use our weather pages